Location: Newark
(50.4348°N, 30.5552°E)
Time: 14:11:11
(UTC+00:00)

Envisat - Pass Details

Date: 08 December 2019
Orbit: 764 x 766 km, 98.1° (Epoch: 18 January)

Event Time Altitude Azimuth Distance (km) Brightness Sun altitude
Rises 04:11:49 0° 20° (NNE) 3,246 6.3 -13.9°
Reaches altitude 10° 04:14:19 10° 29° (NNE) 2,315 5.6 -13.5°
Maximum altitude 04:19:01 36° 96° (E) 1,196 4.7 -12.8°
Drops below altitude 10° 04:23:41 10° 163° (SSE) 2,298 6.0 -12.1°
Sets 04:26:08 0° 171° (S) 3,219 6.7 -11.7°
